SCP
0 0 0 0 0 0 0 0 0 0 0 0 0 0 0 0 0 0 0 0 0 -0 0 -0 0 0 0 0 0 0 0 0 0 0 0 0 0 0 0 0 0 0 0
0 0 0 0 0 0 0 0 0 0 0 0 0 0 0 0 0 0 0 0 0 0 0 0 0 0 0 0 0 0 0 0 0 0 0 0 0 0 0 0 0 0 0
0 0 0 0 0 0 0 0 0 0 0 0 0 0 0 0 0 0 0 0 0 0 0 0 0 0 0 0 0 0 0 0 0 0 0 0 0 0 0 0 0 0 0
0 0 0 0 0 0 0 0 0 0 0 0 0 0 0 0 0 0 0 0 0 0 0 0 0 0 0 0 0 0 0 0 0 0 0 0 0 0 0 0 0 0 0
0 0 0 0 0 0 0 0 0 0 0 0 0 0 0 0 0 0 0 0 0 0 0 0 0 0 0 0 0 0 0 0 0 0 0 0 0 0 0 0 0 0 0
0 0 0 0 0 0 0 0 0 0 0 0 0 0 0 0 0 0 0 0 0 0 0 0 0 0 0 0 0 0 0 0 0 0 0 0 0 0 0 0 0 0 0
0 0 0 0 0 0 0 0 0 0 0 0 0 0 0 0 0 0 0 0 0 0 0 0 0 0 0 0 0 0 0 0 0 0 0 0 0 0 0 0 0 0 0
0 0 0 0 0 0 0 0 0 0 0 0 0 0 0 0 0 0 0 0 0 0 0 0 0 0 0 0 0 0 0 0 0 0 0 0 0 0 0 0 0 0 0
0 0 0 0 0 0 0 0 0 0 0 0 0 0 0 0 0 0 0 0 0 0 0 0 0 0 0 0 0 0 0 0 0 0 0 0 0 0 0 0 0 0 0
0 0 0 0 0 0 0 0 0 0 0 0 0 0 0 0 0 0 0 0 0 0 0 0 0 0 0 0 0 0 0 0 0 0 0 0 0 0 0 0 0 0 0
0 0 0 0 0 0 0 0 0 0 0 0 0 0 0 0 0 0 0 0 0 0 0 0 0 0 0 0 0 0 0 0 0 0 0 0 0 0 0 0 0 0 0
0 0 0 0 0 0 0 0 0 0 0 0 0 0 0 0 0 0 0 0 0 0 0 0 0 0 0 0 0 0 0 0 0 0 0 0 0 0 0 0 0 0 0
0 0 0 0 0 0 0 0 0 0 0 0 0 0 0 0 0 0 0 0 0 0 0 0 0 0 0 0 0 0 0 0 0 0 0 0 0 0 0 0 0 0 0
0 0 0 0 0 0 0 0 0 0 0 0 0 0 0 0 0 0 0 0 0 0 0 0 0 0 0 0 0 0 0 0 0 0 0 0 0 0 0 0 0 0 0
0 0 0 0 0 0 0 0 0 0 0 0 0 0 0 0 0 0 0 0 0 0 0 0 0 0 0 0 0 0 0 0 0 0 0 0 0 0 0 0 0 0 0
0 0 0 0 0 0 0 0 0 0 0 0 0 0 0 0 0 0 0 0 0 0 0 0 0 0 0 0 0 0 0 0 0 0 0 0 0 0 0 0 0 0 0
0 0 0 0 0 0 0 0 0 0 0 0 0 0 0 0 0 0 0 0 0 0 0 0 0 0 0 0 0 0 0 0 0 0 0 0 0 0 0 0 0 0 0
0 0 0 0 0 0 0 0 0 0 0 0 0 0 0 0 0 0 0 0 0 0 0 0 0 0 0 0 0 0 0 0 0 0 0 0 0 0 0 0 0 0 0
0 0 0 0 0 0 0 0 0 0 0 0 0 0 0 0 0 0 0 0 0 0 0 0 0 0 0 0 0 0 0 0 0 0 0 0 0 0 0 0 0 0 0
0 0 0 0 0 0 0 0 0 0 0 0 0 0 0 0 0 0 0 0 0 0 0 0 0 0 0 0 0 0 0 0 0 0 0 0 0 0 0 0 0 0 0
0 0 0 0 0 0 0 0 0 0 0 0 0 0 0 0 0 0 0 0 0 0 0 0 0 0 0 0 0 0 0 0 0 0 0 0 0 0 0 0 0 0 0
0 0 0 0 0 0 0 0 0 0 0 0 0 0 0 0 0 0 0 0 0 0 0 0 0 0 0 0 0 0 0 0 0 0 0 0 0 0 0 0 0 0 0
0 0 0 0 0 0 0 0 0 0 0 0 0 0 0 0 0 0 0 0 0 0 0 0 0 0 0 0 0 0 0 0 0 0 0 0 0 0 0 0 0 0 0
0 0 0 0 0 0 0 0 0 0 0 0 0 0 0 0 0 0 0 0 0 0 0 0 0 0 0 0 0 0 0 0 0 0 0 0 0 0 0 0 0 0 0
0 0 0 0 0 0 0 0 0 0 0 0 0 0 0 0 0 0 0 0 0 0 0 0 0 0 0 0 0 0 0 0 0 0 0 0 0 0 0 0 0 0 0
0 0 0 0 0 0 0 0 0 0 0 0 0 0 0 0 0 0 0 0 0 0 0 0 0 0 0 0 0 0 0 0 0 0 0 0 0 -0 -0 -0 0 0 0
Wind_Speed_500mb
39 35 29 29 26 24 23 22 21 20 20 19 19 17 15 15 14 13 12 13 12 12 12 11 9 8 9 12 15 20 24 28 29 30 30 31 34 37 39 42 44 45 43
41 39 37 34 30 28 25 24 23 23 22 21 19 18 17 17 16 16 16 14 13 12 10 9 9 9 13 18 21 25 27 29 29 29 30 34 37 40 43 45 47 49 49
43 40 36 36 28 27 28 27 26 24 23 22 21 22 22 22 23 21 21 18 15 14 13 8 10 12 16 21 23 24 26 29 31 31 31 36 38 40 41 43 46 47 49
42 41 40 38 31 33 33 32 29 29 28 28 26 25 26 26 25 26 26 23 20 17 18 12 10 14 18 22 24 25 28 29 28 30 35 38 43 45 48 48 48 49 51
43 42 41 37 35 37 37 33 31 29 28 26 26 26 27 29 27 26 26 26 24 19 16 14 14 15 23 25 23 24 22 26 32 37 42 45 45 46 48 51 53 51 51
50 44 42 39 40 41 38 35 32 31 29 25 27 29 30 27 22 26 29 26 23 22 13 13 15 21 27 28 29 27 29 34 37 39 41 42 45 47 49 51 52 53 53
57 50 43 43 46 46 41 37 34 35 33 25 25 27 27 26 25 20 26 29 22 23 17 17 22 28 27 28 30 32 34 35 35 41 41 42 46 50 52 54 55 54 55
59 55 50 47 50 50 46 43 41 37 30 22 28 25 25 27 21 14 13 20 28 26 27 28 26 27 25 31 32 35 34 30 34 39 43 47 48 51 54 54 55 56 55
68 62 57 52 51 53 53 48 45 39 32 29 33 30 12 15 9 14 14 21 34 31 31 31 21 21 24 33 33 32 26 31 39 42 46 48 53 55 56 54 53 53 52
77 73 68 59 54 53 55 53 49 44 42 42 41 45 47 43 19 12 22 30 33 37 29 13 16 26 33 30 26 30 37 37 39 44 51 53 52 51 49 50 50 50 49
80 78 74 64 59 55 54 52 51 53 52 52 51 51 50 52 54 54 27 28 29 16 9 16 23 19 21 26 27 29 31 39 46 50 49 48 47 47 47 46 47 50 51
87 86 80 73 64 60 59 53 48 54 55 57 58 56 56 57 52 46 48 32 21 7 14 17 17 17 17 22 25 33 41 49 50 50 49 47 47 49 51 53 53 53 53
79 93 90 77 71 63 63 55 60 61 64 64 64 64 62 57 55 54 41 35 25 17 13 10 15 23 24 29 34 41 48 49 50 51 50 50 51 53 54 54 54 55 55
68 66 88 80 74 69 64 68 68 73 72 71 70 71 68 61 50 38 29 21 10 3 11 16 24 26 31 34 42 42 43 46 49 51 52 52 56 55 56 54 52 54 55
57 60 59 83 78 75 77 75 75 83 78 70 63 46 37 22 21 18 22 21 14 3 14 25 28 30 33 39 42 43 43 48 50 51 51 51 53 52 53 52 52 54 54
54 57 62 66 78 82 84 80 67 52 43 47 34 27 15 16 15 14 12 3 5 9 26 29 26 29 36 39 40 41 42 43 44 45 45 46 47 48 50 52 52 53 54
64 62 63 70 80 80 57 30 33 21 25 23 30 25 27 23 14 7 7 6 15 21 26 25 27 31 32 33 35 37 40 40 39 39 40 41 41 44 47 49 51 53 52
77 67 77 88 63 30 28 19 24 22 24 28 33 20 15 9 2 4 13 11 11 13 14 15 19 23 29 32 35 33 34 35 34 31 29 31 36 39 41 44 46 49 52
45 20 49 54 30 25 25 17 26 27 34 30 25 20 13 9 12 13 10 6 7 10 11 13 17 21 26 27 28 28 25 25 28 29 24 29 34 35 36 41 47 49 48
45 34 38 39 26 30 25 30 26 45 38 30 25 25 22 18 15 10 7 4 5 9 12 14 17 21 25 30 33 35 30 30 28 18 20 27 29 28 35 41 43 44 41
52 71 61 62 51 56 47 54 48 50 37 35 31 25 20 17 11 4 2 5 8 11 14 16 19 23 27 31 34 38 39 36 38 28 29 30 29 26 36 39 42 38 33
80 81 75 73 74 64 62 48 41 41 39 32 27 22 15 10 7 3 4 9 9 11 15 19 22 25 27 30 34 38 41 46 39 38 40 35 28 34 38 40 42 35 31
74 75 74 70 64 56 48 46 37 35 31 25 23 19 18 15 13 12 10 10 12 15 17 21 25 29 30 35 40 39 37 40 46 44 45 38 36 42 42 39 31 28 51
49 49 58 54 55 61 41 42 31 30 27 26 27 25 19 17 15 10 9 10 13 17 21 26 29 32 34 35 37 40 41 38 40 44 45 34 54 51 48 39 19 55 55
50 51 55 59 44 51 36 28 29 34 30 25 23 20 17 13 8 6 7 11 16 21 24 26 28 27 33 34 34 37 39 41 41 42 35 49 53 63 56 34 43 61 52
58 51 46 39 36 34 33 30 29 27 29 27 25 18 14 8 6 8 11 15 16 18 22 24 26 28 28 33 36 37 37 40 41 29 35 52 53 64 46 24 63 59 67
Wind_Direction_500mb
223 220 217 215 215 225 226 225 226 230 231 237 246 250 252 252 257 262 265 270 280 282 285 290 301 311 323 328 324 320 318 313 308 309 309 309 309 310 310 309 309 308 308
224 223 221 221 224 228 224 225 228 233 237 244 252 260 259 260 261 258 259 263 272 274 268 277 298 324 330 326 321 321 320 317 321 319 314 309 308 307 307 309 310 309 308
225 222 224 225 223 222 224 224 227 235 239 248 252 256 251 246 249 250 253 262 262 253 242 283 326 315 309 314 316 319 317 320 320 315 312 309 306 304 305 307 309 311 312
224 224 226 225 222 224 224 226 230 235 240 245 249 248 251 256 262 264 259 259 254 241 237 258 283 294 306 306 306 314 319 320 311 304 307 305 308 312 313 310 308 309 309
223 226 227 228 227 227 230 233 237 243 249 256 259 261 261 263 268 265 266 267 253 240 227 236 268 284 298 305 301 312 311 297 299 303 307 311 314 315 315 315 315 314 311
223 227 229 228 228 230 232 234 239 244 252 260 262 263 270 275 267 262 259 254 237 216 239 258 277 272 301 303 308 302 298 300 304 306 313 318 318 318 318 318 319 316 315
228 229 230 230 231 232 233 237 242 246 250 250 267 276 284 286 290 264 258 247 228 217 237 246 258 276 297 300 304 303 303 314 314 313 313 316 319 321 322 321 319 316 315
235 231 233 234 233 235 235 235 239 247 252 246 255 271 286 290 279 271 234 210 206 227 235 241 251 267 287 296 305 308 306 300 304 314 316 317 318 317 317 317 316 316 313
234 236 238 238 237 237 238 240 241 242 242 242 246 246 254 241 253 230 242 223 224 234 234 236 247 279 297 302 300 299 299 299 299 302 311 317 317 318 318 317 316 315 313
235 236 237 238 237 238 239 240 241 237 234 238 244 246 248 249 247 252 251 235 229 223 225 253 278 293 300 296 301 302 305 310 315 316 317 318 320 321 320 318 318 317 318
233 235 236 235 236 236 239 240 239 234 235 242 246 249 251 252 251 250 228 223 211 206 211 264 286 291 299 293 302 307 311 312 312 313 315 318 319 318 318 320 319 318 319
236 235 237 237 237 239 241 239 231 237 241 245 250 255 249 244 246 250 245 209 194 202 263 291 278 276 284 296 304 310 310 312 315 318 320 321 320 319 317 317 319 320 320
241 234 235 237 234 240 241 244 238 239 241 245 249 248 247 250 258 248 223 192 195 194 237 243 268 285 284 298 308 310 313 317 319 320 321 321 319 316 319 319 322 321 321
252 249 235 235 238 240 247 246 243 244 244 245 247 248 247 240 212 195 200 197 198 233 235 268 265 267 282 294 303 313 317 317 319 319 320 321 317 322 322 320 322 320 318
256 247 243 232 235 239 241 245 244 248 241 238 233 209 184 187 197 199 227 205 170 170 263 245 249 259 279 303 311 314 316 319 319 321 323 322 322 322 319 322 321 320 321
250 248 241 235 236 238 239 241 234 205 191 181 170 172 197 193 207 224 241 263 358 204 218 231 246 275 297 301 306 313 317 319 321 320 322 319 320 321 324 326 324 323 323
247 241 236 235 235 230 209 170 177 192 178 201 209 218 233 215 215 225 286 239 207 212 224 237 259 275 286 298 309 316 317 318 319 321 323 320 320 323 324 321 321 324 327
247 242 240 232 203 155 139 163 198 209 210 219 215 193 204 185 195 221 226 229 242 252 259 254 272 284 296 302 303 311 318 319 318 321 319 319 323 324 324 323 324 327 330
237 281 200 150 135 121 156 132 192 216 216 209 203 181 176 161 202 214 224 253 281 287 294 291 291 297 304 312 315 325 329 328 330 334 334 331 332 332 327 328 329 330 333
230 241 188 216 217 260 227 202 204 200 191 176 169 167 168 180 192 201 219 260 312 320 319 324 322 322 327 332 337 337 342 345 340 339 344 338 337 332 335 328 328 330 330
215 206 203 198 208 199 210 201 189 184 171 166 167 169 174 173 172 172 60 17 1 348 337 339 341 337 335 338 341 344 344 348 337 342 355 345 344 338 339 332 330 332 335
196 198 203 200 193 188 182 176 165 157 153 162 166 161 152 139 130 113 73 36 17 10 358 346 341 338 338 341 341 342 345 345 346 333 349 346 348 348 345 339 337 336 341
192 190 188 184 175 160 142 141 155 151 148 153 147 144 140 140 127 86 50 30 13 360 353 350 344 335 335 342 342 337 342 343 336 336 339 345 346 348 349 341 341 347 332
190 175 173 155 144 130 137 137 160 151 144 151 152 138 135 112 91 60 31 13 1 358 353 354 347 340 332 337 333 333 338 342 333 334 340 341 339 343 347 345 343 339 338
153 146 138 139 147 132 138 150 175 148 142 149 136 126 119 121 90 39 7 3 3 357 348 343 334 333 326 329 330 330 327 335 338 339 340 341 338 337 342 348 340 341 339
141 137 135 132 132 137 148 153 164 145 142 148 135 144 140 116 61 8 6 6 355 342 340 338 334 327 324 328 330 332 333 341 344 346 332 337 340 343 338 335 342 340 342
Wind_Speed_850mb
39 35 29 29 26 24 23 22 21 20 20 19 19 17 15 15 14 13 12 13 12 12 12 11 9 8 9 12 15 20 24 28 29 30 30 31 34 37 39 42 44 45 43
41 39 37 34 30 28 25 24 23 23 22 21 19 18 17 17 16 16 16 14 13 12 10 9 9 9 13 18 21 25 27 29 29 29 30 34 37 40 43 45 47 49 49
43 40 36 36 28 27 28 27 26 24 23 22 21 22 22 22 23 21 21 18 15 14 13 8 10 12 16 21 23 24 26 29 31 31 31 36 38 40 41 43 46 47 49
42 41 40 38 31 33 33 32 29 29 28 28 26 25 26 26 25 26 26 23 20 17 18 12 10 14 18 22 24 25 28 29 28 30 35 38 43 45 48 48 48 49 51
43 42 41 37 35 37 37 33 31 29 28 26 26 26 27 29 27 26 26 26 24 19 16 14 14 15 23 25 23 24 22 26 32 37 42 45 45 46 48 51 53 51 51
50 44 42 39 40 41 38 35 32 31 29 25 27 29 30 27 22 26 29 26 23 22 13 13 15 21 27 28 29 27 29 34 37 39 41 42 45 47 49 51 52 53 53
57 50 43 43 46 46 41 37 34 35 33 25 25 27 27 26 25 20 26 29 22 23 17 17 22 28 27 28 30 32 34 35 35 41 41 42 46 50 52 54 55 54 55
59 55 50 47 50 50 46 43 41 37 30 22 28 25 25 27 21 14 13 20 28 26 27 28 26 27 25 31 32 35 34 30 34 39 43 47 48 51 54 54 55 56 55
68 62 57 52 51 53 53 48 45 39 32 29 33 30 12 15 9 14 14 21 34 31 31 31 21 21 24 33 33 32 26 31 39 42 46 48 53 55 56 54 53 53 52
77 73 68 59 54 53 55 53 49 44 42 42 41 45 47 43 19 12 22 30 33 37 29 13 16 26 33 30 26 30 37 37 39 44 51 53 52 51 49 50 50 50 49
80 78 74 64 59 55 54 52 51 53 52 52 51 51 50 52 54 54 27 28 29 16 9 16 23 19 21 26 27 29 31 39 46 50 49 48 47 47 47 46 47 50 51
87 86 80 73 64 60 59 53 48 54 55 57 58 56 56 57 52 46 48 32 21 7 14 17 17 17 17 22 25 33 41 49 50 50 49 47 47 49 51 53 53 53 53
79 93 90 77 71 63 63 55 60 61 64 64 64 64 62 57 55 54 41 35 25 17 13 10 15 23 24 29 34 41 48 49 50 51 50 50 51 53 54 54 54 55 55
68 66 88 80 74 69 64 68 68 73 72 71 70 71 68 61 50 38 29 21 10 3 11 16 24 26 31 34 42 42 43 46 49 51 52 52 56 55 56 54 52 54 55
57 60 59 83 78 75 77 75 75 83 78 70 63 46 37 22 21 18 22 21 14 3 14 25 28 30 33 39 42 43 43 48 50 51 51 51 53 52 53 52 52 54 54
54 57 62 66 78 82 84 80 67 52 43 47 34 27 15 16 15 14 12 3 5 9 26 29 26 29 36 39 40 41 42 43 44 45 45 46 47 48 50 52 52 53 54
64 62 63 70 80 80 57 30 33 21 25 23 30 25 27 23 14 7 7 6 15 21 26 25 27 31 32 33 35 37 40 40 39 39 40 41 41 44 47 49 51 53 52
77 67 77 88 63 30 28 19 24 22 24 28 33 20 15 9 2 4 13 11 11 13 14 15 19 23 29 32 35 33 34 35 34 31 29 31 36 39 41 44 46 49 52
45 20 49 54 30 25 25 17 26 27 34 30 25 20 13 9 12 13 10 6 7 10 11 13 17 21 26 27 28 28 25 25 28 29 24 29 34 35 36 41 47 49 48
45 34 38 39 26 30 25 30 26 45 38 30 25 25 22 18 15 10 7 4 5 9 12 14 17 21 25 30 33 35 30 30 28 18 20 27 29 28 35 41 43 44 41
52 71 61 62 51 56 47 54 48 50 37 35 31 25 20 17 11 4 2 5 8 11 14 16 19 23 27 31 34 38 39 36 38 28 29 30 29 26 36 39 42 38 33
80 81 75 73 74 64 62 48 41 41 39 32 27 22 15 10 7 3 4 9 9 11 15 19 22 25 27 30 34 38 41 46 39 38 40 35 28 34 38 40 42 35 31
74 75 74 70 64 56 48 46 37 35 31 25 23 19 18 15 13 12 10 10 12 15 17 21 25 29 30 35 40 39 37 40 46 44 45 38 36 42 42 39 31 28 51
49 49 58 54 55 61 41 42 31 30 27 26 27 25 19 17 15 10 9 10 13 17 21 26 29 32 34 35 37 40 41 38 40 44 45 34 54 51 48 39 19 55 55
50 51 55 59 44 51 36 28 29 34 30 25 23 20 17 13 8 6 7 11 16 21 24 26 28 27 33 34 34 37 39 41 41 42 35 49 53 63 56 34 43 61 52
58 51 46 39 36 34 33 30 29 27 29 27 25 18 14 8 6 8 11 15 16 18 22 24 26 28 28 33 36 37 37 40 41 29 35 52 53 64 46 24 63 59 67
Wind_Direction_850mb
223 220 217 215 215 225 226 225 226 230 231 237 246 250 252 252 257 262 265 270 280 282 285 290 301 311 323 328 324 320 318 313 308 309 309 309 309 310 310 309 309 308 308
224 223 221 221 224 228 224 225 228 233 237 244 252 260 259 260 261 258 259 263 272 274 268 277 298 324 330 326 321 321 320 317 321 319 314 309 308 307 307 309 310 309 308
225 222 224 225 223 222 224 224 227 235 239 248 252 256 251 246 249 250 253 262 262 253 242 283 326 315 309 314 316 319 317 320 320 315 312 309 306 304 305 307 309 311 312
224 224 226 225 222 224 224 226 230 235 240 245 249 248 251 256 262 264 259 259 254 241 237 258 283 294 306 306 306 314 319 320 311 304 307 305 308 312 313 310 308 309 309
223 226 227 228 227 227 230 233 237 243 249 256 259 261 261 263 268 265 266 267 253 240 227 236 268 284 298 305 301 312 311 297 299 303 307 311 314 315 315 315 315 314 311
223 227 229 228 228 230 232 234 239 244 252 260 262 263 270 275 267 262 259 254 237 216 239 258 277 272 301 303 308 302 298 300 304 306 313 318 318 318 318 318 319 316 315
228 229 230 230 231 232 233 237 242 246 250 250 267 276 284 286 290 264 258 247 228 217 237 246 258 276 297 300 304 303 303 314 314 313 313 316 319 321 322 321 319 316 315
235 231 233 234 233 235 235 235 239 247 252 246 255 271 286 290 279 271 234 210 206 227 235 241 251 267 287 296 305 308 306 300 304 314 316 317 318 317 317 317 316 316 313
234 236 238 238 237 237 238 240 241 242 242 242 246 246 254 241 253 230 242 223 224 234 234 236 247 279 297 302 300 299 299 299 299 302 311 317 317 318 318 317 316 315 313
235 236 237 238 237 238 239 240 241 237 234 238 244 246 248 249 247 252 251 235 229 223 225 253 278 293 300 296 301 302 305 310 315 316 317 318 320 321 320 318 318 317 318
233 235 236 235 236 236 239 240 239 234 235 242 246 249 251 252 251 250 228 223 211 206 211 264 286 291 299 293 302 307 311 312 312 313 315 318 319 318 318 320 319 318 319
236 235 237 237 237 239 241 239 231 237 241 245 250 255 249 244 246 250 245 209 194 202 263 291 278 276 284 296 304 310 310 312 315 318 320 321 320 319 317 317 319 320 320
241 234 235 237 234 240 241 244 238 239 241 245 249 248 247 250 258 248 223 192 195 194 237 243 268 285 284 298 308 310 313 317 319 320 321 321 319 316 319 319 322 321 321
252 249 235 235 238 240 247 246 243 244 244 245 247 248 247 240 212 195 200 197 198 233 235 268 265 267 282 294 303 313 317 317 319 319 320 321 317 322 322 320 322 320 318
256 247 243 232 235 239 241 245 244 248 241 238 233 209 184 187 197 199 227 205 170 170 263 245 249 259 279 303 311 314 316 319 319 321 323 322 322 322 319 322 321 320 321
250 248 241 235 236 238 239 241 234 205 191 181 170 172 197 193 207 224 241 263 358 204 218 231 246 275 297 301 306 313 317 319 321 320 322 319 320 321 324 326 324 323 323
247 241 236 235 235 230 209 170 177 192 178 201 209 218 233 215 215 225 286 239 207 212 224 237 259 275 286 298 309 316 317 318 319 321 323 320 320 323 324 321 321 324 327
247 242 240 232 203 155 139 163 198 209 210 219 215 193 204 185 195 221 226 229 242 252 259 254 272 284 296 302 303 311 318 319 318 321 319 319 323 324 324 323 324 327 330
237 281 200 150 135 121 156 132 192 216 216 209 203 181 176 161 202 214 224 253 281 287 294 291 291 297 304 312 315 325 329 328 330 334 334 331 332 332 327 328 329 330 333
230 241 188 216 217 260 227 202 204 200 191 176 169 167 168 180 192 201 219 260 312 320 319 324 322 322 327 332 337 337 342 345 340 339 344 338 337 332 335 328 328 330 330
215 206 203 198 208 199 210 201 189 184 171 166 167 169 174 173 172 172 60 17 1 348 337 339 341 337 335 338 341 344 344 348 337 342 355 345 344 338 339 332 330 332 335
196 198 203 200 193 188 182 176 165 157 153 162 166 161 152 139 130 113 73 36 17 10 358 346 341 338 338 341 341 342 345 345 346 333 349 346 348 348 345 339 337 336 341
192 190 188 184 175 160 142 141 155 151 148 153 147 144 140 140 127 86 50 30 13 360 353 350 344 335 335 342 342 337 342 343 336 336 339 345 346 348 349 341 341 347 332
190 175 173 155 144 130 137 137 160 151 144 151 152 138 135 112 91 60 31 13 1 358 353 354 347 340 332 337 333 333 338 342 333 334 340 341 339 343 347 345 343 339 338
153 146 138 139 147 132 138 150 175 148 142 149 136 126 119 121 90 39 7 3 3 357 348 343 334 333 326 329 330 330 327 335 338 339 340 341 338 337 342 348 340 341 339
141 137 135 132 132 137 148 153 164 145 142 148 135 144 140 116 61 8 6 6 355 342 340 338 334 327 324 328 330 332 333 341 344 346 332 337 340 343 338 335 342 340 342